Weather History for Billings, MT

Change the Weather History Date:

Sunday, March 10, 2013

  Actual Average Record
Temperature  
Mean Temperature 40 °F 36 °F  
Max Temperature 58 °F 47 °F 71 °F (1972)
Min Temperature 22 °F 25 °F -15 °F (1948)
Degree Days  
Heating Degree Days 25 29  
Month to date heating degree days 295 301  
Since 1 July heating degree days 4856 5266  
Cooling Degree Days 0 0  
Month to date cooling degree days 0 0  
Year to date cooling degree days 0 0  
Moisture  
Dew Point 17 °F    
Average Humidity 48    
Maximum Humidity 77    
Minimum Humidity 19    
Precipitation  
Precipitation T in 0.03 in 0.30 in (2014)
Month to date precipitation 0.17 0.26  
Year to date precipitation 1.05 1.22  
Snow  
Snow 0.00 in 0.30 in 1.80 in (1950)
Month to date snowfall 1.7 3.1  
Since 1 July snowfall 33.8 37.6  
Snow Depth 0.00 in    
Sea Level Pressure  
Sea Level Pressure 30.13 in    
Wind  
Wind Speed 11 mph (WSW)    
Max Wind Speed 24 mph    
Max Gust Speed 30 mph    
Visibility 10 miles    
Events      
T = Trace of Precipitation, MM = Missing Value Source: NWS Daily Summary

Daily Weather History Graph

Daily Weather History Graph

Search for Another Location

Airport:

Trip Planner

Search our weather history database for the weather conditions in past years. The results will help you decide how hot, cold, wet, or windy it might be!

Date:

Astronomy

Mar. 10, 2013 Rise Set
Actual Time 7:35 AM MDT 7:13 PM MDT
Civil Twilight 7:06 AM MDT 7:43 PM MDT
Nautical Twilight 6:31 AM MDT 8:17 PM MDT
Astronomical Twilight 5:56 AM MDT 8:53 PM MDT
Moon 6:39 AM MDT (3/10) 6:24 PM MDT (3/10)
Length of Visible Light 12h 37m
Length of Day
11h 38m
Waning Crescent, 1% of the Moon is Illuminated
Mar 10
Waning Crescent
Mar 11
New
Mar 19
First Quarter
Mar 27
Full
Apr 2
Last Quarter

Hourly Weather History & Observations

Time (MDT) Temp. Windchill Dew Point Humidity Pressure Visibility Wind Dir Wind Speed Gust Speed Precip Events Conditions
12:53 AM 28.0 °F 22.8 °F 17.1 °F 63% 30.27 in 10.0 mi SSE 4.6 mph - N/A   Clear
1:53 AM 26.6 °F 20.0 °F 17.6 °F 69% 30.19 in 10.0 mi SSE 5.8 mph - N/A   Clear
3:53 AM 26.1 °F 21.9 °F 18.0 °F 71% 30.25 in 10.0 mi South 3.5 mph - N/A   Clear
4:53 AM 21.9 °F 12.5 °F 16.0 °F 78% 30.24 in 10.0 mi SSW 8.1 mph - N/A   Clear
6:53 AM 24.1 °F 13.7 °F 16.0 °F 71% 30.27 in 10.0 mi SW 10.4 mph - N/A   Clear
7:53 AM 25.0 °F 13.6 °F 16.0 °F 69% 30.27 in 10.0 mi SW 12.7 mph - N/A   Clear
8:53 AM 26.1 °F 15.6 °F 17.1 °F 69% 30.29 in 10.0 mi SW 11.5 mph - N/A   Clear
9:53 AM 30.9 °F 22.2 °F 18.0 °F 59% 30.27 in 10.0 mi SW 10.4 mph - N/A   Clear
10:53 AM 35.1 °F 26.4 °F 19.9 °F 54% 30.26 in 10.0 mi SW 12.7 mph - N/A   Clear
11:53 AM 41.0 °F 36.4 °F 21.0 °F 45% 30.22 in 10.0 mi South 6.9 mph - N/A   Clear
12:53 PM 48.0 °F - 19.0 °F 32% 30.16 in 10.0 mi SSW 12.7 mph 19.6 mph N/A   Clear
1:53 PM 51.1 °F - 18.0 °F 27% 30.12 in 10.0 mi WSW 13.8 mph - N/A   Clear
2:53 PM 55.0 °F - 17.1 °F 23% 30.06 in 10.0 mi Variable 6.9 mph - N/A   Clear
3:53 PM 57.0 °F - 15.1 °F 19% 30.04 in 10.0 mi North - - N/A   Clear
4:53 PM 55.9 °F - 15.1 °F 20% 30.04 in 10.0 mi NW 13.8 mph - N/A   Partly Cloudy
5:53 PM 53.1 °F - 15.1 °F 22% 30.03 in 10.0 mi NNW 15.0 mph - N/A   Scattered Clouds
6:53 PM 51.1 °F - 16.0 °F 25% 30.03 in 10.0 mi NW 17.3 mph - N/A   Scattered Clouds
7:53 PM 50.0 °F - 14.0 °F 24% 29.98 in 10.0 mi NW 23.0 mph 28.8 mph N/A   Scattered Clouds
8:53 PM 48.0 °F - 16.0 °F 28% 30.03 in 10.0 mi NW 18.4 mph - N/A   Overcast
9:53 PM 48.0 °F - 16.0 °F 28% 30.01 in 10.0 mi NNW 12.7 mph - N/A   Overcast
10:53 PM 46.9 °F - 15.1 °F 28% 30.01 in 10.0 mi NNW 11.5 mph - N/A   Overcast
11:53 PM 46.0 °F 40.2 °F 17.1 °F 31% 29.99 in 10.0 mi NW 12.7 mph - N/A   Overcast
12:53 AM 46.0 °F 41.4 °F 19.9 °F 35% 29.98 in 10.0 mi NW 9.2 mph - 0.00 in   Overcast